TimeEST,TemperatureF,Dew PointF,Humidity,Sea Level PressureIn,VisibilityMPH,Wind Direction,Wind SpeedMPH,Gust SpeedMPH,PrecipitationIn,Events,Conditions,WindDirDegrees,DateUTC
12:14 AM,32.2,26.1,78,30.15,10.0,East,3.5,-,N/A,,Overcast,100,2012-11-06 05:14:00
12:34 AM,32.4,24.4,73,30.14,10.0,ESE,3.5,-,N/A,,Overcast,110,2012-11-06 05:34:00
12:53 AM,32.0,25.7,78,30.14,10.0,Calm,Calm,-,N/A,,Overcast,0,2012-11-06 05:53:00
1:14 AM,32.0,26.1,79,30.13,10.0,Calm,Calm,-,N/A,,Overcast,0,2012-11-06 06:14:00
1:34 AM,31.8,26.4,80,30.13,10.0,Calm,Calm,-,N/A,,Overcast,0,2012-11-06 06:34:00
1:54 AM,31.6,25.7,79,30.13,10.0,Calm,Calm,-,N/A,,Overcast,0,2012-11-06 06:54:00
2:14 AM,31.1,26.2,82,30.12,10.0,Calm,Calm,-,N/A,,Overcast,0,2012-11-06 07:14:00
2:34 AM,30.9,26.2,83,30.12,10.0,Calm,Calm,-,N/A,,Overcast,0,2012-11-06 07:34:00
2:53 AM,30.7,26.1,83,30.12,10.0,Calm,Calm,-,N/A,,Overcast,0,2012-11-06 07:53:00
3:14 AM,30.9,27.1,86,30.12,10.0,Calm,Calm,-,N/A,,Overcast,0,2012-11-06 08:14:00
3:34 AM,30.4,25.7,83,30.12,10.0,ENE,4.6,-,N/A,,Overcast,60,2012-11-06 08:34:00
3:53 AM,30.7,24.8,79,30.10,10.0,ENE,3.5,-,N/A,,Overcast,70,2012-11-06 08:53:00
4:14 AM,30.7,24.8,79,30.10,10.0,NE,4.6,-,N/A,,Overcast,40,2012-11-06 09:14:00
4:33 AM,30.9,24.6,77,30.10,10.0,NNE,3.5,-,N/A,,Overcast,30,2012-11-06 09:33:00
4:54 AM,30.2,24.6,80,30.10,10.0,NE,4.6,-,N/A,,Overcast,40,2012-11-06 09:54:00
5:14 AM,29.8,24.1,79,30.10,10.0,NE,3.5,-,N/A,,Overcast,40,2012-11-06 10:14:00
5:33 AM,30.2,23.7,77,30.10,10.0,Calm,Calm,-,N/A,,Overcast,0,2012-11-06 10:33:00
5:54 AM,29.3,25.2,85,30.10,10.0,Calm,Calm,-,N/A,,Overcast,0,2012-11-06 10:54:00
6:14 AM,30.0,23.9,78,30.10,10.0,Calm,Calm,-,N/A,,Overcast,0,2012-11-06 11:14:00
6:34 AM,29.3,25.2,85,30.10,10.0,Calm,Calm,-,N/A,,Overcast,0,2012-11-06 11:34:00
6:54 AM,29.3,25.7,86,30.10,10.0,Calm,Calm,-,N/A,,Overcast,0,2012-11-06 11:54:00
7:14 AM,29.1,25.5,86,30.10,10.0,Calm,Calm,-,N/A,,Overcast,0,2012-11-06 12:14:00
7:33 AM,29.7,24.3,80,30.10,10.0,Calm,Calm,-,N/A,,Overcast,0,2012-11-06 12:33:00
7:54 AM,29.7,24.6,81,30.10,10.0,East,3.5,-,N/A,,Overcast,90,2012-11-06 12:54:00
8:14 AM,31.6,25.3,78,30.10,10.0,ENE,4.6,-,N/A,,Scattered Clouds,70,2012-11-06 13:14:00
8:34 AM,32.4,25.0,74,30.09,10.0,ENE,5.8,-,N/A,,Clear,70,2012-11-06 13:34:00
8:53 AM,34.3,25.0,69,30.09,10.0,East,5.8,-,N/A,,Clear,90,2012-11-06 13:53:00
9:14 AM,34.5,23.7,65,30.09,10.0,East,8.1,-,N/A,,Clear,100,2012-11-06 14:14:00
9:33 AM,36.3,25.2,64,30.09,10.0,East,4.6,-,N/A,,Clear,90,2012-11-06 14:33:00
9:54 AM,36.9,25.9,64,30.09,10.0,ENE,5.8,-,N/A,,Clear,70,2012-11-06 14:54:00
10:14 AM,37.8,25.9,62,30.09,10.0,East,5.8,-,N/A,,Clear,90,2012-11-06 15:14:00
10:33 AM,38.1,25.2,60,30.08,10.0,East,5.8,-,N/A,,Clear,100,2012-11-06 15:33:00
10:54 AM,38.7,26.1,61,30.08,10.0,East,8.1,-,N/A,,Clear,100,2012-11-06 15:54:00
11:14 AM,40.1,27.1,60,30.07,10.0,ENE,8.1,-,N/A,,Clear,60,2012-11-06 16:14:00
11:33 AM,39.9,26.4,59,30.07,10.0,NNE,4.6,-,N/A,,Clear,30,2012-11-06 16:33:00
11:54 AM,40.6,25.9,56,30.06,10.0,Calm,Calm,-,N/A,,Clear,0,2012-11-06 16:54:00
12:14 PM,41.0,25.7,55,30.05,10.0,NE,3.5,-,N/A,,Clear,50,2012-11-06 17:14:00
12:34 PM,43.0,28.0,56,30.05,10.0,East,6.9,-,N/A,,Clear,90,2012-11-06 17:34:00
12:54 PM,42.4,25.7,52,30.04,10.0,NE,4.6,-,N/A,,Clear,50,2012-11-06 17:54:00
1:14 PM,42.1,25.7,52,30.03,10.0,ENE,3.5,-,N/A,,Clear,60,2012-11-06 18:14:00
1:33 PM,43.5,25.7,50,30.02,10.0,ENE,3.5,-,N/A,,Clear,60,2012-11-06 18:33:00
1:54 PM,43.2,24.6,48,30.01,10.0,NE,4.6,-,N/A,,Clear,50,2012-11-06 18:54:00
2:14 PM,43.7,25.7,49,30.00,10.0,East,6.9,-,N/A,,Clear,100,2012-11-06 19:14:00
2:34 PM,43.7,25.7,49,29.99,10.0,NE,6.9,-,N/A,,Clear,50,2012-11-06 19:34:00
2:53 PM,44.1,25.5,48,29.99,10.0,NE,5.8,-,N/A,,Clear,40,2012-11-06 19:53:00
3:14 PM,43.9,25.5,48,29.98,10.0,ENE,5.8,-,N/A,,Clear,60,2012-11-06 20:14:00
3:33 PM,44.1,25.7,49,29.98,10.0,NE,6.9,-,N/A,,Clear,50,2012-11-06 20:33:00
3:54 PM,43.5,26.4,51,29.98,10.0,ENE,6.9,-,N/A,,Clear,70,2012-11-06 20:54:00
4:14 PM,42.6,25.7,51,29.98,10.0,ENE,5.8,-,N/A,,Clear,70,2012-11-06 21:14:00
4:33 PM,41.9,25.7,53,29.98,10.0,ENE,6.9,-,N/A,,Clear,60,2012-11-06 21:33:00
4:54 PM,39.6,25.5,57,29.98,10.0,East,4.6,-,N/A,,Clear,80,2012-11-06 21:54:00
5:14 PM,38.3,25.2,59,29.97,10.0,East,5.8,-,N/A,,Clear,80,2012-11-06 22:14:00
5:34 PM,37.2,24.8,61,29.96,10.0,East,6.9,-,N/A,,Clear,90,2012-11-06 22:34:00
5:53 PM,37.2,24.8,61,29.96,10.0,ENE,3.5,-,N/A,,Clear,70,2012-11-06 22:53:00
6:14 PM,35.8,24.8,64,29.96,10.0,Calm,Calm,-,N/A,,Clear,0,2012-11-06 23:14:00
6:34 PM,35.4,25.5,67,29.97,10.0,Calm,Calm,-,N/A,,Clear,0,2012-11-06 23:34:00
6:53 PM,35.1,25.3,68,29.97,10.0,Calm,Calm,-,N/A,,Clear,0,2012-11-06 23:53:00
7:14 PM,33.4,25.7,73,29.97,10.0,Calm,Calm,-,N/A,,Clear,0,2012-11-07 00:14:00
7:34 PM,32.7,25.0,73,29.98,10.0,NNE,3.5,-,N/A,,Clear,20,2012-11-07 00:34:00
7:54 PM,33.4,24.6,70,29.98,10.0,Calm,Calm,-,N/A,,Clear,0,2012-11-07 00:54:00
8:14 PM,31.5,25.0,77,29.97,10.0,NNE,4.6,-,N/A,,Clear,20,2012-11-07 01:14:00
8:34 PM,32.2,25.3,76,29.97,10.0,NE,6.9,-,N/A,,Clear,50,2012-11-07 01:34:00
8:54 PM,31.6,25.5,78,29.97,10.0,ENE,4.6,-,N/A,,Clear,60,2012-11-07 01:54:00
9:14 PM,30.0,25.7,84,29.97,10.0,ENE,4.6,-,N/A,,Clear,60,2012-11-07 02:14:00
9:34 PM,30.6,25.7,82,29.97,10.0,NE,3.5,-,N/A,,Clear,50,2012-11-07 02:34:00
9:54 PM,30.6,25.7,82,29.96,10.0,ENE,3.5,-,N/A,,Clear,60,2012-11-07 02:54:00
10:14 PM,30.2,25.7,83,29.96,10.0,NE,3.5,-,N/A,,Clear,50,2012-11-07 03:14:00
10:34 PM,29.3,25.3,85,29.95,10.0,ENE,3.5,-,N/A,,Clear,60,2012-11-07 03:34:00
10:53 PM,29.7,25.5,85,29.95,10.0,ENE,5.8,-,N/A,,Clear,60,2012-11-07 03:53:00
11:14 PM,28.9,25.5,87,29.95,10.0,ENE,5.8,-,N/A,,Clear,70,2012-11-07 04:14:00
11:34 PM,28.4,24.8,86,29.94,10.0,East,6.9,-,N/A,,Clear,80,2012-11-07 04:34:00
11:54 PM,28.4,24.8,86,29.94,10.0,ENE,6.9,-,N/A,,Clear,70,2012-11-07 04:54:00